Overview Statistics Trail Chart Weather Telemetry Raw packets
 

This is the latest recevied weather packets stored in our database for station/object CT4TX-11. If no packets are shown the sender has not sent any weather packets the latest 10 day(s).

<< 25 26 27 28 29 30 31 >>
Time Temp. Humidity Pressure Rain* Wind** Luminosity Snow
1788024960 29.44° C 43% 1007.3 hPa - - - -
1788024059 30.56° C 41% 1007.1 hPa - - - -
1788023159 30.56° C 42% 1007.1 hPa - - - -
1788022259 30.56° C 42% 1007.2 hPa - - - -
1788021359 30.56° C 43% 1007.2 hPa - - - -
1788020459 30.56° C 43% 1007.1 hPa - - - -
1788019558 29.44° C 45% 1007.1 hPa - - - -
1788018664 29.44° C 44% 1007.1 hPa - - - -
1788017763 29.44° C 44% 1007.1 hPa - - - -
1788016863 29.44° C 43% 1007.1 hPa - - - -
1788015963 29.44° C 44% 1007.1 hPa - - - -
1788015063 29.44° C 43% 1007.2 hPa - - - -
1788014174 28.89° C 43% 1007.2 hPa - - - -
1788013262 28.33° C 44% 1007.3 hPa - - - -
1788012362 28.33° C 45% 1007.5 hPa - - - -
1788011462 28.89° C 43% 1007.6 hPa - - - -
1788010562 28.33° C 43% 1007.8 hPa - - - -
1788009661 28.33° C 43% 1007.8 hPa - - - -
1788008761 28.33° C 44% 1007.9 hPa - - - -
1788007860 28.33° C 44% 1008.1 hPa - - - -
1788006960 28.33° C 43% 1008.2 hPa - - - -
1788006060 28.89° C 43% 1008.3 hPa - - - -
1788005160 28.89° C 42% 1008.4 hPa - - - -
1788004259 28.89° C 42% 1008.6 hPa - - - -
1788003359 28.33° C 43% 1008.6 hPa - - - -

* Rain since midnight (hover to see other rain measurements)
** Current wind speed in m/s (hover to see current wind gust speed)